Weather History for KMKC - June, 2012

Change the Weather History Date:

Monday, June 4, 2012

  Actual Average Record
Temperature  
Mean Temperature 80 °F -  
Max Temperature 93 °F 78 °F 93 °F (2011)
Min Temperature 66 °F 60 °F 48 °F (1998)
Cooling Degree Days 14    
Growing Degree Days 30 (Base 50)    
Moisture  
Dew Point 63 °F    
Average Humidity 65    
Maximum Humidity 94    
Minimum Humidity 28    
Precipitation  
Precipitation 0.00 in - - ()
Sea Level Pressure  
Sea Level Pressure 29.82 in    
Wind  
Wind Speed 6 mph (NNW)    
Max Wind Speed 16 mph    
Max Gust Speed 22 mph    
Visibility 9 miles    
Events      
Averages and records for this station are not official NWS values.
T = Trace of Precipitation, MM = Missing Value Source: NWS Daily Summary

Daily Weather History Graph

Daily Weather History Graph

Search for Another Location

Airport or City:

Trip Planner

Search our weather history database for the weather conditions in past years. The results will help you decide how hot, cold, wet, or windy it might be!

Date:

Astronomy

Jun. 04, 2012 Rise Set
Actual Time 5:53 AM CDT 8:40 PM CDT
Civil Twilight 5:21 AM CDT 9:12 PM CDT
Nautical Twilight 4:41 AM CDT 9:52 PM CDT
Astronomical Twilight 3:56 AM CDT 10:38 PM CDT
Moon 9:11 PM CDT 6:00 AM CDT
Length of Visible Light 15h 51m
Length of Day
14h 47m
Full, 100% of the Moon is Illuminated
Jun 4
Full
Jun 11
Last Quarter
Jun 19
New
Jun 26
First Quarter
Jul 3
Full

Hourly Weather History & Observations

Time (CDT) Temp. Heat Index Dew Point Humidity Pressure Visibility Wind Dir Wind Speed Gust Speed Precip Events Conditions
12:54 AM 71.1 °F - 66.9 °F 87% 29.82 in 10.0 mi SSW 5.8 mph - N/A   Clear
1:54 AM 70.0 °F - 66.9 °F 90% 29.78 in 10.0 mi Calm Calm - N/A   Clear
2:54 AM 69.1 °F - 66.9 °F 93% 29.75 in 7.0 mi Calm Calm - N/A   Clear
3:22 AM 66.2 °F - 64.4 °F 94% 29.80 in 2.0 mi SSW 3.5 mph - N/A   Clear
3:31 AM 66.2 °F - 64.4 °F 94% 29.81 in 8.0 mi SSW 3.5 mph - N/A   Clear
3:54 AM 69.1 °F - 66.0 °F 90% 29.80 in 10.0 mi SSW 4.6 mph - N/A   Clear
4:54 AM 68.0 °F - 66.2 °F 94% 29.83 in 10.0 mi SSW 5.8 mph - N/A   Clear
5:54 AM 66.9 °F - 64.9 °F 93% 29.82 in 7.0 mi WNW 3.5 mph - N/A   Clear
6:52 AM 68.0 °F - 66.2 °F 94% 29.84 in 5.0 mi NW 3.5 mph - N/A   Partly Cloudy
6:54 AM 68.0 °F - 66.0 °F 93% 29.83 in 5.0 mi Calm Calm - N/A   Partly Cloudy
7:54 AM 72.0 °F - 66.9 °F 84% 29.86 in 10.0 mi SW 5.8 mph - N/A   Clear
8:54 AM 75.9 °F - 66.0 °F 71% 29.86 in 10.0 mi WSW 6.9 mph - N/A   Clear
9:54 AM 81.0 °F 83.3 °F 66.9 °F 62% 29.84 in 10.0 mi WNW 4.6 mph - N/A   Clear
10:54 AM 84.0 °F 86.3 °F 66.0 °F 55% 29.84 in 10.0 mi WNW 6.9 mph - N/A   Clear
11:54 AM 88.0 °F 89.6 °F 64.9 °F 46% 29.83 in 10.0 mi NNW 8.1 mph - N/A   Clear
12:54 PM 90.0 °F 89.7 °F 60.1 °F 37% 29.82 in 10.0 mi NW 11.5 mph 17.3 mph N/A   Clear
1:54 PM 91.9 °F 90.6 °F 57.0 °F 31% 29.81 in 10.0 mi North 10.4 mph 21.9 mph N/A   Clear
2:54 PM 93.0 °F 91.7 °F 57.0 °F 30% 29.81 in 10.0 mi North 11.5 mph 20.7 mph N/A   Clear
3:54 PM 93.0 °F 91.7 °F 57.0 °F 30% 29.79 in 10.0 mi North 15.0 mph 19.6 mph N/A   Clear
4:54 PM 93.0 °F 91.1 °F 55.0 °F 28% 29.78 in 10.0 mi North 11.5 mph 21.9 mph N/A   Clear
5:54 PM 91.9 °F 90.8 °F 57.9 °F 32% 29.78 in 10.0 mi North 12.7 mph 19.6 mph N/A   Clear
6:54 PM 89.1 °F 88.2 °F 59.0 °F 36% 29.79 in 10.0 mi NNE 11.5 mph - N/A   Clear
7:54 PM 84.9 °F 85.9 °F 63.0 °F 48% 29.81 in 10.0 mi NE 16.1 mph - N/A   Clear
8:54 PM 80.1 °F 81.5 °F 63.0 °F 56% 29.83 in 10.0 mi ENE 9.2 mph - N/A   Clear
9:54 PM 79.0 °F - 63.0 °F 58% 29.85 in 10.0 mi ENE 12.7 mph - N/A   Clear
10:54 PM 75.9 °F - 63.0 °F 64% 29.86 in 10.0 mi ENE 11.5 mph - N/A   Clear
11:54 PM 73.9 °F - 63.0 °F 68% 29.87 in 10.0 mi ENE 13.8 mph - N/A   Clear